[[{"header":{"parameterUnit":"m.s-1","parameterCategory":1,"la1":30.2992,"la2":30.254,"lo1":-89.0895,"lo2":-89.0443,"dy":0.0025,"dx":0.0025,"nx":19,"ny":19,"refTime":"2026-03-08T09:00:00:Z","depth":0,"parameterNumber":2,"parameterNumberName":"U-component_of_WINDS"},"data":[0,0,0,0.3598,0.36,0.369,0.369,0.3792,0.3793,0,0,0,0,0,0,0,0,0,0,0,0.3559,0.3559,0.3598,0.36,0.369,0.369,0.3792,0.3793,0,0,0,0,0,0,0,0,0,0,0,0.3559,0.3559,0.356,0.36,0.369,0.3691,0.3792,0.3729,0,0,0,0,0,0,0,0,0,0,0.3644,0.3596,0.3559,0.356,0.36,0.369,0.3691,0.3727,0.3733,0.3744,0,0.3747,0,0.3771,0.3798,0.3798,0,0,0,0.361,0.359,0.3625,0.356,0.3601,0.369,0.3652,0.373,0.3738,0.3752,0.3748,0.3753,0.3773,0.3799,0.3799,0.3819,0.3819,0,0,0.3605,0.357,0.362,0.3629,0.361,0.3649,0.3655,0.3735,0.373,0.3749,0.3755,0.3774,0.3799,0.38,0.3819,0.3819,0,0,0,0.3584,0.3566,0.3599,0.3624,0.3642,0.3651,0.3658,0.3727,0.374,0.3757,0.3775,0.38,0.3801,0.382,0.3819,0.3766,0,0,0,0.3581,0.3554,0.3596,0.3576,0.364,0.3684,0.3647,0.3734,0.3745,0.3775,0.38,0.3801,0.382,0.3819,0.3768,0.3747,0,0,0,0.3558,0.3551,0.356,0.3574,0.3611,0.3684,0.3703,0.3738,0.3756,0.3798,0.3802,0.3821,0.382,0.377,0.375,0.3742,0,0,0,0.3523,0.3512,0.3558,0.3554,0.361,0.3649,0.3702,0.3734,0.3764,0.38,0.382,0.3819,0.3771,0.3753,0.3744,0.3728,0.3717,0,0,0.349,0.3507,0.3507,0.3551,0.3572,0.3638,0.3653,0.3716,0.3753,0.3796,0.3797,0.3767,0.3751,0.3742,0.3672,0.3664,0,0,0,0.3485,0.3485,0.3498,0.3524,0.3569,0.3607,0.367,0.3693,0.3731,0.3767,0.3763,0.3754,0.375,0.3745,0.3737,0.3737,0.3815,0.3815,0.3815,0.339,0.3436,0.344,0.3497,0.3521,0.3586,0.3611,0.3654,0.3696,0.3694,0.3707,0.3658,0.365,0.3645,0.3644,0.3702,0.3702,0.3702,0.3701,0.3346,0.3353,0.3407,0.3429,0.3479,0.35,0.3563,0.3591,0.362,0.3653,0.3652,0.3683,0.3634,0.3636,0.3698,0.3698,0.3699,0.3699,0.37,0.3289,0.33,0.3327,0.3368,0.3396,0.3455,0.3479,0.3525,0.3569,0.3568,0.3587,0.3588,0.3595,0.3573,0.3573,0.3573,0.3573,0.3573,0.3573,0.3219,0.3251,0.3264,0.331,0.3332,0.3368,0.3433,0.3457,0.3496,0.3528,0.3529,0.3571,0.362,0.3631,0.357,0.3571,0.3571,0.3571,0.3571,0.3158,0.3179,0.3199,0.3221,0.328,0.3304,0.3362,0.3407,0.3435,0.3445,0.3488,0.3516,0.3538,0.3544,0.3554,0.3477,0.3477,0.3477,0.3477,0.311,0.3125,0.3155,0.3187,0.3225,0.3278,0.3302,0.3353,0.3409,0.343,0.3448,0.3465,0.3469,0.3488,0.3495,0.3506,0.3418,0.3417,0.3417,0.3076,0.3096,0.3105,0.3158,0.3207,0.325,0.3274,0.3311,0.338,0.3416,0.3447,0.3449,0.3477,0.3484,0.352,0.3531,0.355,0,0]},{"header":{"parameterUnit":"m.s-1","parameterCategory":1,"la1":30.2992,"la2":30.254,"lo1":-89.0895,"lo2":-89.0443,"dy":0.0025,"dx":0.0025,"nx":19,"ny":19,"refTime":"2026-03-08T09:00:00:Z","depth":0,"parameterNumber":3,"parameterNumberName":"V-component_of_WINDS"},"data":[0,0,0,2.0307,2.0306,2.0278,2.0278,2.0248,2.0248,0,0,0,0,0,0,0,0,0,0,0,2.032,2.032,2.0307,2.0306,2.0278,2.0278,2.0248,2.0248,0,0,0,0,0,0,0,0,0,0,0,2.032,2.032,2.032,2.0306,2.0278,2.0278,2.0248,2.0267,0,0,0,0,0,0,0,0,0,0,2.0293,2.031,2.032,2.032,2.0306,2.0278,2.0278,2.0268,2.0266,2.0264,0,2.0264,0,2.0256,2.0246,2.0246,0,0,0,2.0302,2.0311,2.03,2.032,2.0306,2.0278,2.029,2.0266,2.0264,2.0261,2.0263,2.0262,2.0255,2.0246,2.0246,2.0249,2.0249,0,0,2.0304,2.0317,2.0301,2.0299,2.0305,2.0291,2.0289,2.0265,2.0268,2.0263,2.0261,2.0255,2.0246,2.0246,2.0249,2.0249,0,0,0,2.0311,2.0318,2.0307,2.03,2.0295,2.029,2.0288,2.0269,2.0264,2.0261,2.0254,2.0246,2.0246,2.0249,2.0249,2.0271,0,0,0,2.0312,2.0322,2.0308,2.0315,2.0295,2.0282,2.0293,2.0266,2.0263,2.0254,2.0246,2.0245,2.0249,2.0249,2.027,2.0279,0,0,0,2.032,2.0323,2.0321,2.0316,2.0305,2.0282,2.0276,2.0265,2.0259,2.0246,2.0245,2.0248,2.0249,2.0269,2.0277,2.0283,0,0,0,2.0332,2.034,2.0321,2.0328,2.0305,2.0297,2.0276,2.0269,2.026,2.0246,2.0249,2.0249,2.0269,2.0276,2.0282,2.0289,2.0294,0,0,2.035,2.0343,2.0346,2.0328,2.0326,2.03,2.0301,2.028,2.0267,2.0256,2.0255,2.027,2.0277,2.0282,2.0317,2.0321,0,0,0,2.0356,2.0358,2.0355,2.0348,2.0334,2.0321,2.03,2.0292,2.0282,2.0264,2.0274,2.0278,2.028,2.0283,2.0286,2.0287,2.0251,2.0251,2.0251,2.0398,2.0382,2.0385,2.0365,2.0359,2.0337,2.033,2.0316,2.03,2.0303,2.0299,2.0322,2.0326,2.0328,2.0329,2.0302,2.0302,2.0302,2.0302,2.0421,2.0421,2.0402,2.0398,2.038,2.0376,2.0355,2.0344,2.0337,2.0323,2.0325,2.031,2.0333,2.0333,2.0304,2.0304,2.0304,2.0303,2.0303,2.0446,2.0443,2.0435,2.0423,2.0416,2.0396,2.039,2.0374,2.0359,2.036,2.0354,2.0353,2.035,2.0359,2.0359,2.0359,2.0359,2.0359,2.0359,2.0474,2.0464,2.0462,2.0448,2.0442,2.0431,2.041,2.0403,2.039,2.0379,2.0378,2.0362,2.0339,2.0332,2.036,2.036,2.036,2.036,2.036,2.0501,2.0492,2.0489,2.0483,2.0465,2.0459,2.0439,2.0426,2.0418,2.0415,2.0399,2.0385,2.0376,2.0374,2.0368,2.0404,2.0404,2.0404,2.0404,2.052,2.0515,2.0508,2.0499,2.0489,2.0471,2.0466,2.045,2.0431,2.0425,2.0418,2.041,2.0408,2.04,2.0397,2.0391,2.0432,2.0432,2.0432,2.0535,2.0529,2.0528,2.0511,2.0497,2.0484,2.0479,2.0468,2.0445,2.0433,2.0419,2.0418,2.0405,2.0402,2.0387,2.0382,2.0372,0,0]}]]